Weather History for Oconto, WI

Change the Weather History Date:

Monday, May 12, 2014

  Actual Average Record
Temperature  
Mean Temperature 50 °F -  
Max Temperature 55 °F 68 °F 55 °F (2014)
Min Temperature 44 °F 41 °F 28 °F (2013)
Degree Days  
Heating Degree Days 15    
Moisture  
Dew Point 48 °F    
Average Humidity 95    
Maximum Humidity 100    
Minimum Humidity 73    
Precipitation  
Precipitation 0.63 in - - ()
Sea Level Pressure  
Sea Level Pressure 29.87 in    
Wind  
Wind Speed 4 mph (ENE)    
Max Wind Speed 10 mph    
Max Gust Speed 17 mph    
Visibility 4 miles    
Events      
Averages and records for this station are not official NWS values.
T = Trace of Precipitation, MM = Missing Value Source: NWS Daily Summary

Daily Weather History Graph

Daily Weather History Graph

Search for Another Location

Airport:

Trip Planner

Search our weather history database for the weather conditions in past years. The results will help you decide how hot, cold, wet, or windy it might be!

Date:

Astronomy

May. 12, 2014 Rise Set
Actual Time 5:26 AM CDT 8:10 PM CDT
Civil Twilight 4:52 AM CDT 8:44 PM CDT
Nautical Twilight 4:10 AM CDT 9:26 PM CDT
Astronomical Twilight 3:21 AM CDT 10:16 PM CDT
Moon 6:02 PM CDT (5/12) 4:12 AM CDT (5/12)
Length of Visible Light 15h 51m
Length of Day
14h 43m
Waxing Gibbous, 95% of the Moon is Illuminated
May 12
Waxing Gibbous
May 14
Full
May 21
Last Quarter
May 28
New
Jun 5
First Quarter

Hourly Weather History & Observations

Time (CDT) Temp. Windchill Dew Point Humidity Pressure Visibility Wind Dir Wind Speed Gust Speed Precip Events Conditions
12:10 AM 51.1 °F - 42.8 °F 73% 29.95 in 10.0 mi East 4.6 mph - N/A   Mostly Cloudy
12:35 AM 50.9 °F - 43.3 °F 75% 29.93 in 10.0 mi ENE 5.8 mph - N/A   Scattered Clouds
12:55 AM 50.9 °F - 43.7 °F 76% 29.92 in 10.0 mi East 5.8 mph - N/A   Scattered Clouds
1:15 AM 50.0 °F - 43.9 °F 79% 29.92 in 10.0 mi Calm Calm - N/A   Clear
1:35 AM 50.4 °F - 44.6 °F 81% 29.92 in 10.0 mi Calm Calm - N/A   Mostly Cloudy
1:55 AM 50.5 °F - 43.7 °F 77% 29.93 in 10.0 mi Calm Calm - N/A   Overcast
2:15 AM 50.5 °F - 44.1 °F 78% 29.92 in 10.0 mi Calm Calm - N/A   Overcast
2:35 AM 50.9 °F - 44.6 °F 79% 29.91 in 10.0 mi Calm Calm - N/A   Overcast
2:55 AM 50.2 °F - 45.3 °F 83% 29.90 in 10.0 mi NE 3.5 mph - N/A   Mostly Cloudy
3:15 AM 50.9 °F - 45.1 °F 81% 29.88 in 10.0 mi East 3.5 mph - N/A   Overcast
3:35 AM 51.1 °F - 45.5 °F 81% 29.89 in 10.0 mi East 3.5 mph - N/A   Overcast
3:55 AM 51.3 °F - 45.7 °F 81% 29.89 in 10.0 mi East 4.6 mph - N/A   Overcast
4:15 AM 51.1 °F - 45.1 °F 80% 29.87 in 10.0 mi ENE 10.4 mph - N/A   Overcast
4:35 AM 50.9 °F - 45.5 °F 82% 29.87 in 10.0 mi ENE 4.6 mph - N/A   Overcast
4:55 AM 51.1 °F - 46.4 °F 84% 29.93 in 7.0 mi North 3.5 mph - N/A   Overcast
5:15 AM 50.4 °F - 48.4 °F 93% 29.93 in 2.5 mi NW 3.5 mph - 0.10 in   Overcast
5:35 AM 49.6 °F - 48.4 °F 95% 29.93 in 4.0 mi Calm Calm - 0.18 in   Overcast
5:55 AM 49.1 °F - 48.2 °F 97% 29.93 in 4.0 mi NNE 4.6 mph - 0.26 in   Overcast
6:15 AM 48.2 °F - 47.3 °F 97% 29.94 in 4.0 mi Calm Calm - 0.07 in   Overcast
6:35 AM 48.2 °F - 47.7 °F 98% 29.88 in 3.0 mi East 9.2 mph - 0.16 in   Overcast
6:55 AM 47.7 °F - 47.3 °F 99% 29.84 in 3.0 mi East 10.4 mph 17.3 mph 0.22 in   Overcast
7:15 AM 47.5 °F - 47.3 °F 99% 29.84 in 4.0 mi East 8.1 mph - 0.01 in   Overcast
7:35 AM 47.3 °F - 47.3 °F 100% 29.81 in 3.0 mi East 8.1 mph - 0.01 in   Overcast
7:55 AM 48.6 °F - 48.4 °F 99% 29.84 in 3.0 mi SE 6.9 mph - 0.01 in   Overcast
8:15 AM 50.2 °F - 50.0 °F 99% 29.83 in 4.0 mi Calm Calm - N/A   Overcast
8:35 AM 51.8 °F - 51.6 °F 99% 29.83 in 5.0 mi Calm Calm - N/A   Overcast
8:55 AM 53.2 °F - 52.9 °F 99% 29.86 in 5.0 mi NNW 4.6 mph - N/A   Overcast
9:15 AM 53.4 °F - 53.1 °F 99% 29.86 in 5.0 mi NE 4.6 mph - N/A   Overcast
9:30 AM 54.5 °F - 54.0 °F 98% 29.86 in 7.0 mi Calm Calm - N/A   Overcast
9:55 AM 55.0 °F - 54.7 °F 99% 29.87 in 7.0 mi East 5.8 mph - N/A   Overcast
10:15 AM 54.5 °F - 54.1 °F 99% 29.87 in 2.0 mi ENE 4.6 mph - N/A   Overcast
10:35 AM 54.3 °F - 54.1 °F 99% 29.88 in 1.0 mi ENE 4.6 mph - N/A   Overcast
10:55 AM 52.3 °F - 52.2 °F 99% 29.89 in 0.2 mi ENE 5.8 mph - N/A   Overcast
11:15 AM 52.2 °F - 52.2 °F 100% 29.89 in 0.2 mi East 5.8 mph - N/A   Overcast
11:35 AM 51.4 °F - 51.4 °F 100% 29.90 in 0.5 mi East 3.5 mph - N/A   Overcast
11:55 AM 51.4 °F - 51.4 °F 100% 29.92 in 0.5 mi Calm Calm - N/A   Overcast
12:15 PM 51.8 °F - 51.8 °F 100% 29.92 in 0.5 mi SE 3.5 mph - 0.01 in   Overcast
12:35 PM 51.4 °F - 51.4 °F 100% 29.88 in 1.2 mi ENE 5.8 mph - 0.10 in   Overcast
12:55 PM 50.9 °F - 50.9 °F 100% 29.81 in 2.5 mi ENE 8.1 mph - 0.14 in   Overcast
1:15 PM 50.5 °F - 50.5 °F 100% 29.84 in 3.0 mi ESE 6.9 mph - N/A   Overcast
1:35 PM 49.8 °F - 49.8 °F 100% 29.84 in 4.0 mi East 4.6 mph - N/A   Overcast
1:55 PM 49.6 °F - 49.6 °F 100% 29.82 in 4.0 mi ESE 4.6 mph - N/A   Overcast
2:35 PM 49.6 °F - 49.3 °F 99% 29.82 in 5.0 mi NE 4.6 mph - N/A   Overcast
2:55 PM 50.5 °F - 50.4 °F 99% 29.81 in 5.0 mi NNE 5.8 mph - N/A   Overcast
3:15 PM 52.7 °F - 52.0 °F 97% 29.84 in 5.0 mi NNW 6.9 mph - N/A   Overcast
3:35 PM 50.7 °F - 50.0 °F 97% 29.86 in 4.0 mi NNE 6.9 mph - N/A   Overcast
3:55 PM 51.4 °F - 50.9 °F 98% 29.85 in 4.0 mi North 10.4 mph - N/A   Overcast
4:15 PM 51.1 °F - 50.5 °F 98% 29.85 in 1.2 mi NNE 6.9 mph - N/A   Overcast
4:35 PM 50.9 °F - 50.5 °F 99% 29.85 in 1.5 mi NNE 8.1 mph - N/A   Overcast
4:55 PM 50.9 °F - 50.5 °F 99% 29.86 in 2.0 mi North 4.6 mph - N/A   Overcast
5:15 PM 51.1 °F - 50.5 °F 98% 29.85 in 2.5 mi NNE 4.6 mph - N/A   Overcast
5:35 PM 50.9 °F - 50.4 °F 98% 29.84 in 1.2 mi NE 5.8 mph - N/A   Overcast
5:55 PM 51.3 °F - 50.5 °F 97% 29.84 in 4.0 mi North 4.6 mph - N/A   Overcast
6:15 PM 51.1 °F - 50.2 °F 97% 29.83 in 5.0 mi ENE 4.6 mph - N/A   Overcast
6:35 PM 51.1 °F - 50.2 °F 97% 29.83 in 5.0 mi East 6.9 mph - N/A   Overcast
6:55 PM 47.3 °F - 46.6 °F 97% 29.84 in 4.0 mi ESE 5.8 mph - N/A   Overcast
7:15 PM 45.9 °F 43.6 °F 45.5 °F 99% 29.85 in 1.0 mi East 4.6 mph - N/A   Overcast
7:35 PM 45.5 °F 44.2 °F 45.3 °F 99% 29.85 in 1.5 mi ENE 3.5 mph - N/A   Overcast
7:55 PM 46.2 °F 44.1 °F 46.0 °F 99% 29.84 in 1.0 mi ENE 4.6 mph - N/A   Overcast
8:15 PM 46.9 °F - 46.9 °F 100% 29.86 in 1.2 mi ENE 4.6 mph - N/A   Overcast
8:35 PM 46.6 °F - 46.6 °F 100% 29.86 in 1.0 mi ENE 5.8 mph - N/A   Overcast
8:55 PM 46.2 °F 42.7 °F 46.2 °F 100% 29.86 in 1.0 mi ENE 6.9 mph - N/A   Overcast
9:15 PM 45.7 °F 41.0 °F 45.7 °F 100% 29.83 in 0.5 mi NNE 9.2 mph - N/A   Overcast
9:35 PM 45.5 °F 41.3 °F 45.5 °F 100% 29.81 in 0.5 mi NE 8.1 mph - N/A   Overcast
9:55 PM 45.5 °F 44.2 °F 45.5 °F 100% 29.81 in 0.5 mi ENE 3.5 mph - N/A   Overcast
10:15 PM 45.1 °F 43.7 °F 45.1 °F 100% 29.84 in 0.8 mi NNE 3.5 mph - N/A   Overcast
10:35 PM 45.5 °F 43.2 °F 45.5 °F 100% 29.83 in 0.8 mi North 4.6 mph - N/A   Overcast
10:55 PM 45.5 °F - 45.5 °F 100% 29.83 in 2.0 mi Calm Calm - N/A   Overcast
11:15 PM 45.5 °F 44.2 °F 45.5 °F 100% 29.83 in 3.0 mi East 3.5 mph - N/A   Overcast
11:35 PM 45.5 °F 41.3 °F 45.5 °F 100% 29.83 in 2.0 mi ESE 8.1 mph - N/A   Overcast
11:55 PM 44.6 °F - 44.6 °F 100% 29.84 in 1.5 mi Calm Calm - N/A   Overcast